Hourly Data Report for October 21, 2013

All times are specified in Local Standard Time (LST). Add 1 hour to adjust for Daylight Saving Time where and when it is observed.

PETAWAWA AWOS 2
ONTARIO

45°57'00.000" N
77°19'00.000" W
130.10 m
6106396
71625
YWA

Download Data

Hourly Data (October 2013)
Hourly Data Report for October 21, 2013
Temp Definition
°C
Dew Point Temp Definition
°C
Rel Hum Definition
%
Wind Dir Definition
10's deg

Wind Spd Definition
km/h
Visibility Definition
km
Stn Press Definition
kPa
Hmdx Definition


Wind Chill Definition


Weather Definition


TIME
00:00 -0.3 -0.9 96   0 15.0 99.94      
01:00 3.7 1.0 82 13 4 15.0 99.94      
02:00 3.9 1.1 82 8 7 15.0 99.93      
03:00 4.0 1.4 83 9 11 15.0 99.86      
04:00 4.3 1.6 83 12 13 15.0 99.83      
05:00 4.8 2.6 86 11 9 15.0 99.77     Rain
06:00 4.6 3.0 89 11 11 15.0 99.72     Rain
07:00 5.1 4.2 94 11 11 15.0 99.66      
08:00 5.8 4.6 92 12 13 15.0 99.64      
09:00 6.2 5.2 93 13 13 15.0 99.57      
10:00 6.8 6.4 97 13 13 6.4 99.50     Moderate Rain
11:00 7.8 7.6 99 11 13 11.3 99.43     Rain
12:00 9.6 9.2 97 13 13 14.5 99.34      
13:00 11.5 10.0 90 14 11 15.0 99.27      
14:00 12.1 10.4 89 13 9 15.0 99.19      
15:00 12.2 10.4 89 17 11 15.0 99.19     Rain
16:00 11.5 10.6 94 16 9 15.0 99.15     Rain
17:00 11.0 10.3 95 15 7 15.0 99.14      
18:00 10.6 9.8 95 14 6 15.0 99.19     Rain
19:00 10.3 9.4 94 15 7 15.0 99.17      
20:00 10.5 9.5 94 13 9 15.0 99.10      
21:00 9.5 8.7 95 19 4 8.0 99.13     Rain
22:00 9.0 8.4 96 15 6 11.3 99.07     Rain
23:00 8.5 8.4 99   0 15.0 98.99     Rain

Notes on Data Quality.

Legend

  • E = Estimated
  • M = Missing
  • NA = Not Available
  • ‡ = Partner data that is not subject to review by the National Climate Archives
Date modified: